User: anonymous   Login
Location: Appleton
(44.2618°N, 88.4157°W)
Time: 16:39:58
(UTC+00:00)
Language:

DMC 3-FM2 - Orbit

View from above orbital plane
View from above orbital plane
View from above satellite
View from above satellite

Ground track
Ground track

The orbit data is extracted from the following two-line orbital elements,

1 40716U 15032B   21172.63803224  .00000015  00000-0  98817-5 0  9994
2 40716  97.8958  63.7542 0013931 123.6425 236.6115 14.73681017320033
Epoch (UTC): 21 June 2021 15:18:45
Eccentricity: 0.0013931
inclination: 97.8958°
perigee height: 639 km
apogee height: 659 km
right ascension of ascending node: 63.7542°
argument of perigee: 123.6425°
revolutions per day: 14.73681017
mean anomaly at epoch: 236.6115°
orbit number at epoch: 32003

The dashed part of the orbit path shows where the satellite is in the earth's shadow,  

DLR